Regional Weather Roundup
Issued by NWS

Home | Current Version | Previous Version | Graphics & Text | Print | Product List | Glossary On
Versions: 1 2 3 4 5 6 7 8 9 10 11 12 13 14 15 16 17 18 19 20 21 22 23 24 25 26 27 28 29 30 31 32 33 34 35 36 37 38 39 40 41 42 43 44 45 46 47 48 49 50
000
ASUS43 KOAX 271402
RWRNE

WEATHER ROUNDUP FOR NEBRASKA
NATIONAL WEATHER SERVICE OMAHA NE
900 AM CDT WED MAY 27 2015

NOTES: SATELLITE DATA IS BEING USED TO AUGMENT CLOUD COVER ABOVE
       12000 FEET.
       "FAIR" INDICATES FEW OR NO CLOUDS BELOW 12,000 FEET WITH NO
       SIGNIFICANT WEATHER AND/OR OBSTRUCTIONS TO VISIBILITY.

  * THESE STATIONS DO NOT REPORT WEATHER SUCH AS RAIN...SNOW OR FOG.

NEZ001>004-019>022-054>056-271500-
NEBRASKA PANHANDLE

CITY           SKY/WX    TMP DP  RH WIND       PRES   REMARKS
SCOTTSBLUFF    MOSUNNY   58  53  84 E12       30.04R
ALLIANCE       PTSUNNY   59  53  80 S12       30.05R
CHADRON        CLOUDY    60  52  74 S13       30.02R
KIMBALL          N/A    N/A N/A N/A MISG        N/A
SIDNEY         CLOUDY    54  52  93 S9        30.07S
$$

NEZ057>060-069>072-079>082-271500-
SOUTHWEST NEBRASKA

CITY           SKY/WX    TMP DP  RH WIND       PRES   REMARKS
NORTH PLATTE   PTSUNNY   61  50  67 E7        30.08S
IMPERIAL       PTSUNNY   60  50  69 SE12      30.08R
LEXINGTON      MOSUNNY   61  56  84 NE3       30.09S
MCCOOK         PTSUNNY   62  51  67 S7        30.09R
$$

NEZ005>010-023>029-035>040-094-271500-
NORTH CENTRAL NEBRASKA

CITY           SKY/WX    TMP DP  RH WIND       PRES   REMARKS
VALENTINE      MOSUNNY   63  50  62 SW10      30.07R
AINSWORTH      SUNNY     65  52  61 SW8       30.07S
BROKEN BOW     SUNNY     63  53  70 SW5       30.09R
ORD            SUNNY     60  52  74 NW3       30.07R
$$

NEZ041-046>049-061>064-073>077-083>087-271500-
SOUTH CENTRAL NEBRASKA

CITY           SKY/WX    TMP DP  RH WIND       PRES   REMARKS
GRAND ISLAND   SUNNY     65  51  60 W3        30.08R
AURORA         SUNNY     65  54  65 NW3       30.08R
HASTINGS       SUNNY     64  53  67 VRB5      30.09R
HEBRON         SUNNY     66  54  66 CALM      30.09R
HOLDREGE       SUNNY     65  49  56 SE3       30.09S
KEARNEY *      SUNNY     63  50  63 SW6       30.10R
YORK           SUNNY     64  54  68 W5        30.08R
$$

NEZ011>018-030>034-042>045-271500-
NORTHEAST NEBRASKA

CITY           SKY/WX    TMP DP  RH WIND       PRES   REMARKS
NORFOLK        SUNNY     65  53  65 NW6       30.05R
ALBION         SUNNY     62  51  68 CALM      30.07R
BLAIR          SUNNY     63  53  70 W6        30.05R
COLUMBUS *     SUNNY     63  52  67 NW5       30.07R
FREMONT        SUNNY     65  55  70 W5        30.06R
TEKAMAH        SUNNY     66  55  67 W8        30.04R
$$

NEZ050>053-065>068-078-088>093-271500-
SOUTHEAST NEBRASKA

CITY           SKY/WX    TMP DP  RH WIND       PRES   REMARKS
LINCOLN        SUNNY     66  54  65 W3        30.07R
OMAHA EPPLEY   SUNNY     65  55  70 NW5       30.05R
BEATRICE       SUNNY     64  54  70 CALM      30.08R
FALLS CITY     SUNNY     67  55  65 NW5       30.06R
NEBRASKA CITY  SUNNY     65  52  61 W6        30.06R
PLATTSMOUTH    SUNNY     67  52  59 W8        30.05R
$$

NEZ044-045-051>053-067-271500-
OMAHA AREA

CITY           SKY/WX    TMP DP  RH WIND       PRES   REMARKS
OMAHA EPPLEY   SUNNY     65  55  70 NW5       30.05R
BLAIR          SUNNY     63  53  70 W6        30.05R
FREMONT        SUNNY     65  55  70 W5        30.06R
OFFUTT AFB     SUNNY     64  56  74 NW6       30.04R
PLATTSMOUTH    SUNNY     67  52  59 W8        30.05R
WAHOO          FAIR      65  54  67 W3        30.05S
$$


USA.gov is the U.S. government's official web portal to all federal, state and local government web resources and services.